Tracking 35274 objects as of 10-Sep-2026
HD Live streaming from Space Station
objects crossing your sky now

TITAN 3C TRANSTAGE R/B

Track TITAN 3C TRANSTAGE R/B now!


NORAD ID: 11560
Int'l Code: 1979-086C
Launch date: October 1, 1979
Source: United States (US)
Launch site: AIR FORCE EASTERN TEST RANGE (AFETR)

Note: This is a ROCKET BODY
Your satellite tracking list
Your tracking list is empty




NASA's NSSDC Master Catalog

Two Line Element Set (TLE):
1 11560U 79086C   26252.53642904  .00000007  00000-0  00000-0 0  9990
2 11560   5.9020  13.0944 1293781 127.4529 245.2282  0.99679928 27084
Source of the keplerian elements: AFSPC